Погода в Дорошовке

Украина / Николаевская область     47°28′23″N   31°27′54″E
темп.,
°C
ветер,
м/с
пор.,
м/с
влажн.,
%
обл.,
%
осадки,
мм/ч
давл.,
гПа
погр.,
м
7 мая, пт
пт700:00+9ссз1287100 0.0 101411
03:00+8сз11873 0.0 101510
06:00+8зюз008720 0.0 101510
09:00+14ююв3362100 0.0 1015382
12:00+18ю5644100 0.0 10151412
15:00+20ююз8104416 0.0 10131647
18:00+17ю81261100 0.0 1011892
21:00+14ю71673100 0.1 1011566
8 мая, сб
сб800:00+13ю71681100 0.7 1010545
03:00+13ююз71686100 0.8 1008501
06:00+12ююз61294100 0.1 1008388
09:00+13сз51090100 3.1 1010625
12:00+14сз7969100 1.8 1012924
15:00+15сз81049100 1.8 10141741
18:00+14сз6947100 0.0 10151555
21:00+10сз61258100 0.0 1018653
9 мая, вс
вс900:00+7ссз713770 0.0 1019596
03:00+5сз511830 0.0 1021372
06:00+4сз510880 0.0 1023362
09:00+9ссз68620 0.0 1024705
12:00+13ссз67425 0.0 10251914
15:00+15ссз6737100 0.0 10252684
18:00+15ссз563753 0.0 10252264
21:00+10св225876 0.0 102722
10 мая, пн
пн1000:00+9св12605 0.0 102810
03:00+7св11653 0.0 102810
06:00+6св22705 0.0 102819
09:00+12св23550 0.0 1029517
12:00+16с35384 0.0 10271918
15:00+18с56345 0.0 10252207
18:00+17ссв67415 0.0 10242045
21:00+11ссв485823 0.0 1025140
11 мая, вт
вт1100:00+9ссз496746 0.0 1024143
03:00+11ссз51262100 0.0 1022404
06:00+11ссз51064100 0.0 1021364
09:00+14с6965100 0.0 1020514
12:00+20с685533 0.0 10181035
15:00+22ссв9115226 0.2 10161732
18:00+17всв81175100 1.9 1016848
21:00+12всв612696 1.9 1018476